| time (UTC) | temp C | wind direction | speed KPH | gust KPH | rain 1hr cm | rain 24hr cm | rain mn cm | humidity % | barometer mb |
| 20260506011546 | 8 | 22 | 12.9 | 24.1 | 0.00 | 0.00 | 0.00 | 33 | 1018.8 |
| 20260506010047 | 8 | 350 | 17.7 | 30.6 | 0.00 | 0.00 | 0.00 | 32 | 1018.6 |
| 20260506004536 | 8 | 21 | 16.1 | 27.4 | 0.00 | 0.00 | 0.00 | 32 | 1018.9 |
| 20260506003043 | 9 | 24 | 16.1 | 30.6 | 0.00 | 0.00 | 0.00 | 31 | 1018.8 |
| 20260506001541 | 8 | 360 | 19.3 | 30.6 | 0.00 | 0.00 | 0.00 | 31 | 1019.0 |
| 20260506000039 | 8 | 349 | 19.3 | 29.0 | 0.00 | 0.00 | 0.00 | 31 | 1019.0 |
| 20260505234600 | 9 | 5 | 20.9 | 33.8 | 0.00 | 0.00 | 0.00 | 31 | 1019.0 |
| 20260505233038 | 9 | 32 | 20.9 | 33.8 | 0.00 | 0.00 | 0.00 | 30 | 1018.8 |
| 20260505231542 | 8 | 347 | 20.9 | 38.6 | 0.00 | 0.00 | 0.00 | 31 | 1018.8 |
| 20260505230042 | 9 | 344 | 22.5 | 41.8 | 0.00 | 0.00 | 0.00 | 30 | 1018.6 |
| 20260505224536 | 10 | 352 | 27.4 | 40.2 | 0.00 | 0.00 | 0.00 | 29 | 1018.8 |
| 20260505223057 | 8 | 341 | 22.5 | 32.2 | 0.00 | 0.00 | 0.00 | 32 | 1018.9 |
| 20260505221537 | 10 | 16 | 24.1 | 40.2 | 0.00 | 0.00 | 0.00 | 31 | 1018.9 |
| 20260505220043 | 9 | 32 | 19.3 | 45.1 | 0.00 | 0.00 | 0.00 | 31 | 1018.9 |
| 20260505214552 | 10 | 27 | 27.4 | 45.1 | 0.00 | 0.00 | 0.00 | 31 | 1019.0 |
| 20260505213037 | 9 | 9 | 20.9 | 37.0 | 0.00 | 0.00 | 0.00 | 31 | 1019.3 |
| 20260505211542 | 9 | 360 | 24.1 | 33.8 | 0.00 | 0.00 | 0.00 | 32 | 1019.5 |
| 20260505210042 | 9 | 343 | 24.1 | 37.0 | 0.00 | 0.00 | 0.00 | 33 | 1019.5 |
| 20260505204542 | 8 | 360 | 20.9 | 43.5 | 0.00 | 0.00 | 0.00 | 35 | 1019.7 |
| 20260505203051 | 8 | 46 | 24.1 | 40.2 | 0.00 | 0.00 | 0.00 | 33 | 1019.6 |
| 20260505201538 | 8 | 336 | 19.3 | 40.2 | 0.00 | 0.00 | 0.00 | 36 | 1019.7 |
| 20260505200038 | 8 | 355 | 22.5 | 40.2 | 0.00 | 0.00 | 0.00 | 37 | 1019.8 |
| 20260505194541 | 8 | 44 | 19.3 | 38.6 | 0.00 | 0.00 | 0.00 | 36 | 1019.7 |
| 20260505193042 | 8 | 32 | 19.3 | 35.4 | 0.00 | 0.00 | 0.00 | 37 | 1019.9 |
| 20260505191546 | 8 | 352 | 24.1 | 40.2 | 0.00 | 0.00 | 0.00 | 38 | 1020.0 |
| 20260505190041 | 8 | 17 | 24.1 | 38.6 | 0.00 | 0.00 | 0.00 | 39 | 1019.9 |
| 20260505184546 | 7 | 341 | 20.9 | 33.8 | 0.00 | 0.00 | 0.00 | 39 | 1019.9 |
| 20260505183047 | 7 | 336 | 24.1 | 35.4 | 0.00 | 0.00 | 0.00 | 40 | 1019.9 |
| 20260505181543 | 7 | 360 | 24.1 | 37.0 | 0.00 | 0.00 | 0.00 | 39 | 1020.0 |
| 20260505180046 | 7 | 355 | 22.5 | 35.4 | 0.00 | 0.00 | 0.00 | 44 | 1020.0 |
| 20260505174537 | 7 | 5 | 16.1 | 35.4 | 0.00 | 0.00 | 0.00 | 44 | 1019.8 |
| 20260505173036 | 7 | 82 | 19.3 | 32.2 | 0.00 | 0.00 | 0.00 | 47 | 1019.7 |
| 20260505171537 | 7 | 40 | 20.9 | 32.2 | 0.00 | 0.00 | 0.00 | 45 | 1019.7 |
| 20260505170037 | 6 | 15 | 17.7 | 29.0 | 0.00 | 0.00 | 0.00 | 51 | 1019.6 |
| 20260505164537 | 5 | 352 | 17.7 | 27.4 | 0.00 | 0.00 | 0.00 | 54 | 1019.7 |
| 20260505163037 | 5 | 5 | 19.3 | 29.0 | 0.00 | 0.00 | 0.00 | 54 | 1019.6 |
| 20260505161539 | 4 | 28 | 11.3 | 25.7 | 0.00 | 0.00 | 0.00 | 60 | 1019.6 |
| 20260505153043 | 3 | 350 | 12.9 | 25.7 | 0.00 | 0.00 | 0.00 | 66 | 1020.0 |
| 20260505151544 | 3 | 338 | 14.5 | 22.5 | 0.00 | 0.00 | 0.00 | 67 | 1020.0 |
| 20260505124540 | 2 | 40 | 6.4 | 14.5 | 0.00 | 0.00 | 0.00 | 67 | 1019.2 |
| 20260505123037 | 1 | 32 | 6.4 | 12.9 | 0.00 | 0.00 | 0.00 | 70 | 1019.1 |
| 20260505121540 | 1 | 355 | 9.7 | 14.5 | 0.00 | 0.00 | 0.00 | 71 | 1019.1 |
| 20260505120043 | 1 | 5 | 8.0 | 12.9 | 0.00 | 0.00 | 0.00 | 69 | 1019.1 |
| 20260505114543 | 1 | 352 | 8.0 | 14.5 | 0.00 | 0.00 | 0.00 | 69 | 1018.9 |
| 20260505113044 | 1 | 347 | 9.7 | 16.1 | 0.00 | 0.00 | 0.00 | 70 | 1018.9 |
| 20260505111544 | 2 | 344 | 11.3 | 16.1 | 0.00 | 0.00 | 0.00 | 70 | 1018.9 |
| 20260505101545 | 3 | 346 | 14.5 | 22.5 | 0.00 | 0.00 | 0.00 | 64 | 1018.8 |
| 20260505100038 | 3 | 342 | 17.7 | 27.4 | 0.00 | 0.00 | 0.00 | 63 | 1018.8 |
| 20260505094537 | 3 | 348 | 19.3 | 25.7 | 0.00 | 0.00 | 0.00 | 61 | 1018.6 |
| 20260505093049 | 3 | 355 | 16.1 | 24.1 | 0.00 | 0.00 | 0.00 | 61 | 1018.5 |
| 20260505091535 | 3 | 352 | 11.3 | 22.5 | 0.00 | 0.00 | 0.00 | 57 | 1018.3 |
| 20260505090042 | 3 | 335 | 6.4 | 14.5 | 0.00 | 0.00 | 0.00 | 57 | 1018.4 |
| 20260505084538 | 2 | 53 | 1.6 | 4.8 | 0.00 | 0.00 | 0.00 | 57 | 1018.3 |
| 20260505083050 | 2 | 53 | 1.6 | 4.8 | 0.00 | 0.00 | 0.00 | 56 | 1018.2 |
| 20260505081538 | 2 | 0 | 0.0 | 0.0 | 0.00 | 0.00 | 0.00 | 56 | 1018.2 |
| 20260505080035 | 2 | 0 | 0.0 | 0.0 | 0.00 | 0.00 | 0.00 | 55 | 1018.0 |
| 20260505074535 | 2 | 0 | 0.0 | 1.6 | 0.00 | 0.00 | 0.00 | 56 | 1018.4 |
| 20260505073042 | 2 | 0 | 0.0 | 3.2 | 0.00 | 0.00 | 0.00 | 55 | 1018.2 |
| 20260505071536 | 2 | 0 | 0.0 | 4.8 | 0.00 | 0.00 | 0.00 | 54 | 1018.4 |
| 20260505070048 | 2 | 0 | 0.0 | 0.0 | 0.00 | 0.00 | 0.00 | 55 | 1018.3 |
| 20260505064537 | 2 | 0 | 0.0 | 1.6 | 0.00 | 0.00 | 0.00 | 55 | 1018.2 |
| 20260505063035 | 3 | 0 | 0.0 | 8.0 | 0.00 | 0.00 | 0.00 | 53 | 1018.1 |
| 20260505061608 | 3 | 52 | 4.8 | 9.7 | 0.00 | 0.00 | 0.00 | 52 | 1018.2 |
| 20260505060044 | 4 | 53 | 3.2 | 6.4 | 0.00 | 0.00 | 0.00 | 51 | 1017.9 |
| 20260505054545 | 5 | 53 | 3.2 | 6.4 | 0.00 | 0.00 | 0.00 | 50 | 1017.8 |
| 20260505053045 | 5 | 53 | 1.6 | 6.4 | 0.00 | 0.00 | 0.00 | 50 | 1017.5 |
| 20260505051624 | 5 | 76 | 4.8 | 8.0 | 0.00 | 0.00 | 0.00 | 48 | 1017.5 |
| 20260505041536 | 6 | 80 | 6.4 | 12.9 | 0.00 | 0.00 | 0.00 | 47 | 1017.1 |
| 20260505040052 | 6 | 87 | 4.8 | 12.9 | 0.00 | 0.00 | 0.00 | 46 | 1016.9 |
| 20260505034544 | 6 | 76 | 3.2 | 12.9 | 0.00 | 0.00 | 0.00 | 45 | 1017.0 |
| 20260505033037 | 6 | 55 | 4.8 | 9.7 | 0.00 | 0.00 | 0.00 | 44 | 1016.8 |
| 20260505031550 | 6 | 44 | 6.4 | 14.5 | 0.00 | 0.00 | 0.00 | 42 | 1016.5 |
| 20260505030036 | 7 | 43 | 6.4 | 17.7 | 0.00 | 0.00 | 0.00 | 41 | 1016.4 |
| 20260505024542 | 7 | 46 | 8.0 | 19.3 | 0.00 | 0.00 | 0.00 | 40 | 1016.3 |
| 20260505023042 | 7 | 47 | 9.7 | 17.7 | 0.00 | 0.00 | 0.00 | 36 | 1016.0 |
| 20260505021538 | 8 | 46 | 12.9 | 27.4 | 0.00 | 0.00 | 0.00 | 33 | 1015.9 |
| 20260505020040 | 9 | 24 | 16.1 | 32.2 | 0.00 | 0.00 | 0.00 | 31 | 1015.9 |
| 20260505014542 | 10 | 16 | 20.9 | 35.4 | 0.00 | 0.00 | 0.00 | 27 | 1015.6 |
| 20260505013035 | 11 | 13 | 24.1 | 43.5 | 0.00 | 0.00 | 0.00 | 25 | 1015.7 |